Weather History for Honolulu, HI

Change the Weather History Date:

Tuesday, January 29, 2013

  Actual Average Record
Temperature  
Mean Temperature 73 °F 73 °F  
Max Temperature 79 °F 80 °F 84 °F (1995)
Min Temperature 66 °F 66 °F 56 °F (1994)
Degree Days  
Heating Degree Days 0 0  
Month to date heating degree days 0 0  
Since 1 July heating degree days 0 0  
Cooling Degree Days 8 8  
Month to date cooling degree days 202 234  
Year to date cooling degree days 202 234  
Growing Degree Days 22 (Base 50)    
Moisture  
Dew Point 65 °F    
Average Humidity 76    
Maximum Humidity 93    
Minimum Humidity 58    
Precipitation  
Precipitation T in 0.06 in 2.10 in (2002)
Month to date precipitation 2.42 2.18  
Year to date precipitation 2.42 2.18  
Snow  
Snow 0.00 in - - ()
Month to date snowfall 0.0  
Since 1 July snowfall 0.0  
Snow Depth 0.00 in    
Sea Level Pressure  
Sea Level Pressure 29.97 in    
Wind  
Wind Speed 5 mph (North)    
Max Wind Speed 13 mph    
Max Gust Speed 20 mph    
Visibility 10 miles    
Events      
T = Trace of Precipitation, MM = Missing Value Source: NWS Daily Summary

Daily Weather History Graph

Daily Weather History Graph

Search for Another Location

Airport:

Trip Planner

Search our weather history database for the weather conditions in past years. The results will help you decide how hot, cold, wet, or windy it might be!

Date:

Astronomy

Jan. 29, 2013 Rise Set
Actual Time 7:09 AM HST 6:20 PM HST
Civil Twilight 6:46 AM HST 6:43 PM HST
Nautical Twilight 6:19 AM HST 7:10 PM HST
Astronomical Twilight 5:53 AM HST 7:36 PM HST
Moon 8:57 PM HST 8:39 AM HST
Length of Visible Light 11h 57m
Length of Day
11h 10m
Waning Gibbous, 92% of the Moon is Illuminated
Jan 29
Waning Gibbous
Feb 3
Last Quarter
Feb 9
New
Feb 17
First Quarter
Feb 25
Full

Hourly Weather History & Observations

Time (HST) Temp. Dew Point Humidity Pressure Visibility Wind Dir Wind Speed Gust Speed Precip Events Conditions
12:53 AM 68.0 °F 64.9 °F 90% 29.95 in 10.0 mi Calm Calm - N/A   Partly Cloudy
1:53 AM 66.0 °F 64.0 °F 93% 29.95 in 10.0 mi Calm Calm - N/A   Partly Cloudy
2:53 AM 66.9 °F 64.0 °F 90% 29.94 in 10.0 mi NNW 3.5 mph - N/A   Mostly Cloudy
3:53 AM 68.0 °F 64.0 °F 87% 29.93 in 10.0 mi NNW 3.5 mph - N/A   Scattered Clouds
4:53 AM 68.0 °F 64.0 °F 87% 29.94 in 10.0 mi Calm Calm - N/A   Mostly Cloudy
5:53 AM 68.0 °F 64.0 °F 87% 29.95 in 10.0 mi NNW 4.6 mph - N/A   Mostly Cloudy
6:53 AM 68.0 °F 64.0 °F 87% 29.96 in 10.0 mi NW 4.6 mph - N/A   Mostly Cloudy
7:53 AM 69.1 °F 64.9 °F 87% 29.97 in 10.0 mi North 3.5 mph - N/A   Scattered Clouds
8:53 AM 73.0 °F 66.0 °F 79% 29.98 in 10.0 mi North 3.5 mph - N/A   Scattered Clouds
9:53 AM 77.0 °F 64.0 °F 64% 29.99 in 10.0 mi Variable 3.5 mph - N/A   Scattered Clouds
10:53 AM 77.0 °F 66.0 °F 69% 29.99 in 10.0 mi South 5.8 mph - N/A   Scattered Clouds
11:53 AM 77.0 °F 64.9 °F 66% 29.97 in 10.0 mi SSE 8.1 mph - N/A   Scattered Clouds
12:53 PM 78.1 °F 64.9 °F 64% 29.95 in 10.0 mi SSE 9.2 mph - N/A   Scattered Clouds
1:53 PM 77.0 °F 66.9 °F 71% 29.93 in 10.0 mi SSE 11.5 mph - N/A   Scattered Clouds
2:53 PM 77.0 °F 64.9 °F 66% 29.92 in 10.0 mi South 5.8 mph - N/A   Mostly Cloudy
3:53 PM 77.0 °F 66.0 °F 69% 29.92 in 10.0 mi SE 9.2 mph - N/A   Mostly Cloudy
4:53 PM 78.1 °F 63.0 °F 60% 29.94 in 10.0 mi NE 5.8 mph - N/A   Mostly Cloudy
5:53 PM 75.9 °F 64.9 °F 69% 29.96 in 10.0 mi North 8.1 mph 19.6 mph N/A   Mostly Cloudy
6:53 PM 73.9 °F 64.9 °F 73% 29.98 in - North 8.1 mph 13.8 mph N/A   Mostly Cloudy
7:53 PM 73.0 °F 64.9 °F 76% 30.00 in 10.0 mi North 3.5 mph - N/A   Partly Cloudy
8:53 PM 72.0 °F 64.0 °F 76% 30.02 in 10.0 mi North 4.6 mph - N/A   Partly Cloudy
9:53 PM 72.0 °F 64.0 °F 76% 30.03 in 10.0 mi Calm Calm - N/A   Partly Cloudy
10:53 PM 69.1 °F 64.0 °F 84% 30.03 in 10.0 mi North 4.6 mph - N/A   Partly Cloudy
11:53 PM 70.0 °F 64.0 °F 81% 30.03 in 10.0 mi NNW 3.5 mph - N/A   Partly Cloudy